Showing default

EGYPTSAT A, 44047

Orbit data source: Space-Track

EGYPTSAT A, 44047 is a payload satellite owned by EgSA (EG) in SSO that was launched on Thu, 21 Feb 2019 UTC via a SOYUZ-2-1B launch vehicle from the Tyuratam Missile And Space Complex (TTMTR). Payload-class satellites include a variety of spacecraft equipped with specific instruments for various scientific and technological missions. These include communications satellites like Starlink; space stations such as the ISS; scientific satellites like the Hubble; Earth observation satellites from companies like Planet Labs, Umbra, and HawkEye 360; GPS; miniature CubeSats for education and research; and military/defense satellites.

Loading next visibility...
Identifier
44047, 2019-008A
Orbit
SSO
Country
Flag of UnknownUnknown / EGYP
Related business
Manufacturer
Yuzhnoe
Mission
Operational Civil Imaging
Bus & Motor
EGYPTSAT, Unknown motor
Mass
~1,050 kg wet, ~1,050 kg dry
Launch date (UTC)
2019-02-21 (7 years ago)
Launch vehicle
SOYUZ-2-1B
Launch site
Tyuratam Missile And Space Complex (TTMTR)
Object type
Payload
Rocket body
Debris
Shape & HBR
Box + 4 Pan + 1 Ant, 1.0 m
Radar Cross Section
0.867 m², Large (>1 m²)

Expand to show TLE details & history
Last TLE update: 6 hours ago

TLE from 6 hours ago
0 EGYPTSAT A
1 44047U 19008A   25259.32756572  .00000614  00000-0  10475-3 0  9998
2 44047  98.0110 323.1323 0001245 108.9443 251.1900 14.72372819352943
Epoch: 2025-09-16T07:51Z
TLE epoch observation values (Epoch: 2025-09-16T07:51:41.678Z)
Latitude
0.00005°
Longitude
-150.31082°
Altitude
656.793 km
Speed
7.529 km/s
True Right ascension
21h 32m 31s
True Declination
0° 00' 00"
Sunlit
Object was in full shadow at epoch
Visualization orbit readout
Latitude
Unknown
Longitude
Unknown
Altitude
Unknown
Speed
Unknown
Apparent Right ascension
Unknown
Apparent Declination
Unknown
Sunlit
N/A
Visualization observer readout
Local Sidereal Time
06:58:55
Azimuth
Unknown
Elevation
Unknown
Doppler factor
Unknown
Orbital elements
Apogee altitude
651.434 km
Perigee altitude
649.684 km
Semi-major axis
7,028.696 km
Eccentricity
0.00012
Inclination
98.011°
RAAN
323.1323°
Arg. of periapsis
108.9443°
True anomaly
251.1765°
Mean anomaly
251.19°
Eccentric anomaly
251.18325°
Mean motion
3.68325 °/min
Orbital period
97.74 mins
BSTAR
0.00010475
Loading maneuver chart data...
Computing Atmospheric mass density...
Loading historical data...
Loading historical data...
Loading historical data...
Loading historical data...
Loading historical data...
Loading historical data...
Loading historical data...
Other satellites on launch #8 in the year 2019 (2019-02-21 UTC)

Documentation

Showing up to 5 results
|